TimeMST,TemperatureF,Dew PointF,Humidity,Sea Level PressureIn,VisibilityMPH,Wind Direction,Wind SpeedMPH,Gust SpeedMPH,PrecipitationIn,Events,Conditions,WindDirDegrees,DateUTC
12:07 AM,30.2,28.4,93,29.71,1.8,SSW,13.8,-,0.00,Snow,Light Snow,210,2013-03-09 07:07:00
12:29 AM,30.2,28.4,93,29.71,2.0,SSW,9.2,-,0.01,Snow,Light Snow,200,2013-03-09 07:29:00
12:53 AM,30.0,28.9,96,29.69,2.5,SW,8.1,-,0.01,Snow,Light Snow,220,2013-03-09 07:53:00
1:05 AM,30.2,28.4,93,29.71,3.0,SSW,8.1,-,0.00,Snow,Light Snow,210,2013-03-09 08:05:00
1:43 AM,30.2,28.4,93,29.72,4.0,SSW,11.5,16.1,0.00,Snow,Light Snow,210,2013-03-09 08:43:00
1:53 AM,30.0,27.0,88,29.71,4.0,SSW,11.5,19.6,0.00,Snow,Light Snow,210,2013-03-09 08:53:00
2:53 AM,30.0,27.0,88,29.70,4.0,SSW,16.1,21.9,0.00,Snow,Light Snow,210,2013-03-09 09:53:00
3:08 AM,30.2,26.6,86,29.71,1.8,SSW,12.7,19.6,0.00,Snow,Light Snow,210,2013-03-09 10:08:00
3:21 AM,28.4,28.4,100,29.72,1.0,SSW,12.7,-,0.01,Snow,Light Snow,200,2013-03-09 10:21:00
3:36 AM,28.4,28.4,100,29.72,2.0,SSW,9.2,-,0.01,Snow,Light Snow,200,2013-03-09 10:36:00
3:51 AM,28.4,28.4,100,29.72,3.0,SSW,9.2,-,0.01,Snow,Light Snow,200,2013-03-09 10:51:00
3:53 AM,28.9,28.0,96,29.72,3.0,SSW,8.1,-,0.01,Snow,Light Snow,210,2013-03-09 10:53:00
4:07 AM,28.4,28.4,100,29.72,2.0,SSW,9.2,-,0.01,Snow,Light Snow,200,2013-03-09 11:07:00
4:17 AM,28.4,28.4,100,29.73,1.5,SSW,6.9,-,0.01,Snow,Light Snow,200,2013-03-09 11:17:00
4:29 AM,28.4,28.4,100,29.73,0.8,SSW,4.6,-,0.02,Snow,Light Snow,200,2013-03-09 11:29:00
4:53 AM,28.9,28.0,96,29.74,0.8,South,5.8,-,0.05,Snow,Light Snow,190,2013-03-09 11:53:00
5:24 AM,28.4,28.4,100,29.75,1.0,SSW,3.5,-,0.04,Snow,Light Snow,210,2013-03-09 12:24:00
5:53 AM,28.9,28.0,96,29.77,1.5,SSW,4.6,-,0.06,Snow,Light Snow,210,2013-03-09 12:53:00
6:53 AM,28.9,28.0,96,29.80,1.0,Calm,Calm,-,0.05,Snow,Light Snow,0,2013-03-09 13:53:00
7:10 AM,28.4,28.4,100,29.80,0.5,Calm,Calm,-,0.02,Fog-Snow,Snow,0,2013-03-09 14:10:00
7:40 AM,30.2,28.4,93,29.81,1.0,Calm,Calm,-,0.05,Snow,Light Snow,0,2013-03-09 14:40:00
7:53 AM,30.0,28.9,96,29.83,1.0,Calm,Calm,-,0.06,Snow,Light Snow,0,2013-03-09 14:53:00
8:10 AM,30.2,28.4,93,29.83,0.8,Calm,Calm,-,0.01,Snow,Light Snow,0,2013-03-09 15:10:00
8:18 AM,30.2,28.4,93,29.83,1.0,West,3.5,-,0.02,Snow,Light Snow,270,2013-03-09 15:18:00
8:28 AM,30.2,28.4,93,29.84,0.8,NNW,5.8,-,0.03,Snow,Light Snow,340,2013-03-09 15:28:00
8:39 AM,30.2,30.2,100,29.84,1.2,North,5.8,-,0.03,Snow,Light Snow,350,2013-03-09 15:39:00
8:53 AM,30.9,30.0,96,29.86,2.0,North,8.1,-,0.03,Snow,Light Snow,350,2013-03-09 15:53:00
9:09 AM,32.0,30.2,93,29.86,4.0,North,8.1,-,0.00,Snow,Light Snow,350,2013-03-09 16:09:00
9:31 AM,32.0,30.2,93,29.87,2.5,NNW,5.8,-,0.01,Snow,Light Snow,340,2013-03-09 16:31:00
9:39 AM,32.0,30.2,93,29.88,4.0,North,8.1,-,0.01,Snow,Light Snow,350,2013-03-09 16:39:00
9:53 AM,32.0,30.0,92,29.90,5.0,North,10.4,-,0.01,Snow,Light Snow,350,2013-03-09 16:53:00
10:27 AM,33.8,30.2,87,29.90,5.0,North,6.9,-,0.00,Snow,Light Snow,360,2013-03-09 17:27:00
10:31 AM,33.8,30.2,87,29.90,6.0,North,6.9,-,0.00,Snow,Light Snow,360,2013-03-09 17:31:00
10:48 AM,33.8,30.2,87,29.91,3.0,NNE,5.8,-,0.00,Snow,Light Snow,20,2013-03-09 17:48:00
10:53 AM,34.0,30.9,89,29.92,2.5,NNE,5.8,-,0.00,Snow,Light Snow,20,2013-03-09 17:53:00
11:20 AM,33.8,30.2,87,29.92,6.0,NNE,9.2,-,0.00,Snow,Light Snow,20,2013-03-09 18:20:00
11:30 AM,33.8,30.2,87,29.93,6.0,NNE,10.4,-,0.00,Snow,Light Snow,20,2013-03-09 18:30:00
11:53 AM,34.0,30.0,85,29.95,8.0,NNE,11.5,-,0.00,Snow,Light Snow,20,2013-03-09 18:53:00
12:35 PM,33.8,30.2,87,29.95,10.0,NNE,13.8,-,0.00,,Overcast,30,2013-03-09 19:35:00
12:53 PM,34.0,28.9,82,29.97,10.0,NE,12.7,-,0.00,,Overcast,40,2013-03-09 19:53:00
1:53 PM,35.1,28.0,76,29.98,10.0,NNE,11.5,-,N/A,,Overcast,20,2013-03-09 20:53:00
2:53 PM,36.0,28.9,76,29.99,10.0,NNE,13.8,19.6,N/A,,Overcast,20,2013-03-09 21:53:00
3:53 PM,36.0,28.0,73,30.02,10.0,NNE,9.2,-,N/A,,Overcast,30,2013-03-09 22:53:00
4:07 PM,35.6,28.4,75,30.01,10.0,NNE,6.9,-,N/A,,Overcast,20,2013-03-09 23:07:00
4:19 PM,35.6,28.4,75,30.02,10.0,North,5.8,-,N/A,,Overcast,360,2013-03-09 23:19:00
4:44 PM,37.4,28.4,70,30.02,10.0,NNE,8.1,-,N/A,,Overcast,30,2013-03-09 23:44:00
4:53 PM,37.0,28.9,73,30.04,10.0,NE,9.2,-,N/A,,Mostly Cloudy,40,2013-03-09 23:53:00
5:53 PM,37.0,28.0,70,30.06,10.0,NNE,9.2,-,N/A,,Mostly Cloudy,30,2013-03-10 00:53:00
6:53 PM,35.1,27.0,72,30.10,10.0,NNE,8.1,-,N/A,,Mostly Cloudy,20,2013-03-10 01:53:00
7:53 PM,33.1,26.1,75,30.14,10.0,North,6.9,-,N/A,,Clear,360,2013-03-10 02:53:00
8:53 PM,32.0,25.0,75,30.15,10.0,NNE,5.8,-,N/A,,Clear,30,2013-03-10 03:53:00
9:53 PM,32.0,24.1,73,30.18,10.0,NNE,6.9,-,N/A,,Clear,20,2013-03-10 04:53:00
10:53 PM,28.9,23.0,78,30.20,10.0,NNW,5.8,-,N/A,,Clear,340,2013-03-10 05:53:00
11:53 PM,30.0,19.0,64,30.21,10.0,NNE,3.5,-,N/A,,Clear,30,2013-03-10 06:53:00